Location: Arbon
(43.0005°N, 0.7472°E)
Time: 21:15:36
(UTC+00:00)

Courier 1B Rocket - Visible Passes

Search period start: 18 June 2021 00:00
Search period end: 28 June 2021 00:00
Orbit: 920 x 1202 km, 28.2° (Epoch: 18 June)

Date Brightness Start Highest point End Pass type
(mag) Time Alt. Az. Time Alt. Az. Time Alt. Az.
18 Jun 6.1 21:30:13 10° SW 21:34:48 21° S 21:35:38 20° S visible
19 Jun 6.3 20:29:19 10° SW 20:34:04 21° S 20:38:17 11° SE visible
19 Jun 6.6 22:22:35 10° SW 22:24:39 15° SSW 22:24:39 15° SSW visible
20 Jun 6.3 21:21:18 10° SW 21:25:45 19° S 21:27:15 18° S visible
21 Jun 6.3 20:20:10 10° SW 20:25:02 21° S 20:29:42 10° SE visible
21 Jun 6.8 22:14:16 10° SW 22:16:11 13° SSW 22:16:11 13° SSW visible
22 Jun 6.5 21:12:34 10° SW 21:16:40 17° SSW 21:18:45 15° S visible
23 Jun 6.5 20:11:11 10° SW 20:15:57 20° S 20:20:31 10° SE visible
23 Jun 7.0 22:07:06 10° SSW 22:07:38 10° SSW 22:07:38 10° SSW visible
24 Jun 6.7 21:04:09 10° SW 21:07:32 14° SSW 21:10:11 11° S visible
26 Jun 7.0 20:56:36 10° SW 20:58:21 11° SSW 21:00:06 10° S visible
